Weather History for Big Piney, WY

Change the Weather History Date:

Thursday, July 11, 2013

  Actual Average Record
Temperature  
Mean Temperature 67 °F 62 °F  
Max Temperature 88 °F 80 °F 92 °F (2002)
Min Temperature 46 °F 43 °F 27 °F (1977)
Degree Days  
Heating Degree Days 0 4  
Month to date heating degree days 3 52  
Since 1 June heating degree days 220 357  
Since 1 July heating degree days 3 52  
Cooling Degree Days 2 1  
Month to date cooling degree days 35 3  
Year to date cooling degree days 55 5  
Since 1 June cooling degree days 55 5  
Growing Degree Days 16 (Base 50)    
Moisture  
Dew Point 36 °F    
Average Humidity 34    
Maximum Humidity 58    
Minimum Humidity 10    
Precipitation  
Precipitation T in 0.02 in 0.30 in (2001)
Month to date precipitation 0.36 0.22  
Year to date precipitation 2.06 3.48  
Sea Level Pressure  
Sea Level Pressure 29.84 in    
Wind  
Wind Speed 9 mph (NW)    
Max Wind Speed 23 mph    
Max Gust Speed 29 mph    
Visibility 10 miles    
Events Rain    
T = Trace of Precipitation, MM = Missing Value Source: NWS Daily Summary

Daily Weather History Graph

Daily Weather History Graph

Search for Another Location

Airport:

Trip Planner

Search our weather history database for the weather conditions in past years. The results will help you decide how hot, cold, wet, or windy it might be!

Date:

Astronomy

Jul. 11, 2013 Rise Set
Actual Time 5:53 AM MDT 8:58 PM MDT
Civil Twilight 5:19 AM MDT 9:32 PM MDT
Nautical Twilight 4:35 AM MDT 10:15 PM MDT
Astronomical Twilight 3:43 AM MDT 11:07 PM MDT
Moon 9:20 AM MDT (7/11) 10:34 PM MDT (7/11)
Length of Visible Light 16h 13m
Length of Day
15h 05m
Waxing Crescent, 11% of the Moon is Illuminated
Jul 11
Waxing Crescent
Jul 15
First Quarter
Jul 22
Full
Jul 29
Last Quarter
Aug 6
New

Hourly Weather History & Observations

Time (MDT) Temp. Windchill Dew Point Humidity Pressure Visibility Wind Dir Wind Speed Gust Speed Precip Events Conditions
12:53 AM 61.0 °F - 32.0 °F 34% 29.88 in 10.0 mi NNE 5.8 mph - N/A   Clear
1:53 AM 54.0 °F - 34.0 °F 47% 29.89 in 10.0 mi ESE 3.5 mph - N/A   Clear
2:53 AM 50.0 °F - 30.9 °F 48% 29.88 in 10.0 mi NNW 5.8 mph - N/A   Clear
3:53 AM 48.9 °F - 33.1 °F 54% 29.87 in 10.0 mi Variable 5.8 mph - N/A   Clear
4:53 AM 46.0 °F 41.9 °F 30.9 °F 56% 29.87 in 10.0 mi NNW 8.1 mph - N/A   Clear
5:53 AM 46.9 °F - 32.0 °F 56% 29.88 in 10.0 mi East 3.5 mph - N/A   Clear
6:53 AM 52.0 °F - 35.1 °F 53% 29.88 in 10.0 mi Calm Calm - N/A   Clear
7:53 AM 59.0 °F - 33.1 °F 38% 29.85 in 10.0 mi Calm Calm - N/A   Clear
8:53 AM 66.9 °F - 37.0 °F 33% 29.86 in 10.0 mi East 5.8 mph - N/A   Clear
9:53 AM 75.0 °F - 34.0 °F 22% 29.83 in 10.0 mi East 6.9 mph - N/A   Clear
10:53 AM 78.1 °F - 39.0 °F 25% 29.84 in 10.0 mi WSW 5.8 mph - N/A   Clear
11:53 AM 84.0 °F - 25.0 °F 12% 29.81 in 10.0 mi WNW 9.2 mph 17.3 mph N/A   Clear
12:53 PM 87.1 °F - 25.0 °F 10% 29.78 in 10.0 mi NNW 15.0 mph 21.9 mph N/A   Clear
1:53 PM 82.0 °F - 27.0 °F 13% 29.83 in 10.0 mi West 8.1 mph - N/A   Partly Cloudy
2:53 PM 78.1 °F - 36.0 °F 22% 29.86 in 10.0 mi West 10.4 mph - N/A   Mostly Cloudy
3:53 PM 79.0 °F - 35.1 °F 20% 29.83 in 10.0 mi WSW 4.6 mph - N/A   Clear
4:53 PM 77.0 °F - 41.0 °F 28% 29.83 in 10.0 mi West 8.1 mph - N/A   Clear
5:53 PM 75.9 °F - 41.0 °F 29% 29.82 in 10.0 mi West 17.3 mph - N/A   Clear
6:53 PM 73.9 °F - 39.9 °F 29% 29.81 in 10.0 mi West 13.8 mph - N/A   Scattered Clouds
7:53 PM 73.9 °F - 37.9 °F 27% 29.79 in 10.0 mi NNW 11.5 mph - N/A   Clear
8:53 PM 69.1 °F - 41.0 °F 36% 29.80 in 10.0 mi North 19.6 mph 25.3 mph N/A   Clear
9:53 PM 64.0 °F - 42.1 °F 45% 29.83 in 10.0 mi NNW 18.4 mph - N/A   Mostly Cloudy
10:53 PM 60.1 °F - 45.0 °F 57% 29.85 in 10.0 mi North 16.1 mph - 0.00 in Rain Light Rain
11:53 PM 59.0 °F - 46.0 °F 62% 29.84 in 10.0 mi North 12.7 mph - 0.00 in   Overcast